"Pseudo-MPEC" for P10LfOB

Created 2019 Jan 13 5:18:23 UT using Find_Orb

Click here for an explanation of pseudo-MPECs

 
 Astrometry: 
     P10LfOB  C2019 01 09_se%pLQ=JdNG@R;CoK[mP9tvl=ZV-gAstrometry[Xm3urQ#?rVZF51
     P10LfOB  C2019 01 09Hr.aF^Scr/?QU^Dh3?j5ko`s_YAredacted;2A]X6BR;XQppO8]FF51
     P10LfOB  C2019 01 09d.-7n@3clickbp^B`Zt`P-7FWA_;gKCHNKSlZ:^(5q.wgFsM[m41F51
     P10LfOB  C2019 01 09MguJ6$uCJ/8.7M%y$lwthere[jbFEAWWB\^/WbE57C`G[n8.NlftF51
     P10LfOB  C2019 01 11.33014 09 20 53.82 +57 49 06.5    ~1B9I 22.3 GVNEOCPI52
     P10LfOB  C2019 01 11.33264 09 20 53.64 +57 49 09.7    ~1B9I 22.5 GVNEOCPI52
     P10LfOB  C2019 01 11.33762 09 20 53.27 +57 49 14.4    ~1B9I 22.3 GVNEOCPI52
     P10LfOB KC2019 01 11M,R*=t@U)x=)gUMVavHIJ:5forx,RG3_W`lcE/]eeA=\$+k^2!EbH21
     P10LfOB KC2019 01 11Ki28Niyexplanationt-x^D=#e5_Ct+',,IV(5u?.287VkeciI-aH21

Station data:
(F51) Pan-STARRS 1, Haleakala  (N20.707235 W156.255910)  US/Hawaii.
   Observers N. Primak, A. Schultz, S. Watters, J. Thiel, T. Goggia. Measurer
   PS1 Science Consortium. 1.8-m Ritchey-Chrétien + CCD.
(H21) Astronomical Research Observatory, Westfield  (N39.483057 W87.968270)
   US/Illinois. 0.76-m f/3.0 astrograph + CCD.
(I52) Steward Observatory, Mt. Lemmon Station  (N32.442547 W110.788920)
   US/Arizona.  Observers B. M. Africano, E. J. Christensen, G. A. Farneth,
   D. C. Fuls, A. R. Gibbs, A. D. Grauer, H. Groeller, J. A. Johnson, R. A.
   Kowalski, S. M. Larson, G. J. Leonard, R. L. Seaman, F. C. Shelly. 1.0-m
   reflector + CCD.

Orbital elements:  P10LfOB
   Perihelion 2018 May 31.382332 +/- 258 TT =  9:10:33 (JD 2458269.882332)
Epoch 2019 Jan 11.0 TT = JDT 2458494.5   Earth MOID: 0.7210   AutoNEOCP
M  87.83090413 +/- 110              (J2000 ecliptic)
n   0.39102402 +/- 0.0844           Peri.  322.55639 +/- 70
a   1.85211133 +/- 0.272            Node    57.32622 +/- 16
e   0.0873188 +/- 0.163             Incl.   23.42867 +/- 6
P   2.52/920.64d           H 19.6   G  0.15   U 11.1  SR
q 1.69038702 +/- 0.232    Q 2.01383564 +/- 0.777
From 9 observations 2019 Jan. 9-11 (45.1 hr); mean residual 0".21
Residuals in arcseconds: 
190109 F51  .01-  .01-    190109 F51  .01-  .01+    190111 I52  .32+  .36-    
190109 F51  .02+  .04+    190111 I52  .46-  .21-    190111 H21  .08+  .33+    
190109 F51  .00   .04-    190111 I52  .17-  .30+    190111 H21  .23+  .05-    

Ephemerides (geocentric):
Date (UTC) HH   RA              Dec         delta   r     elong  mag " sig PA
---- -- -- --  -------------   -----------  ------ ------ -----  --- ---- ---
2019 01 13 05  09 18 13.820   +58 21 24.77  1.0053 1.8625 138.9 21.9 37.9  81
2019 01 13 06  09 18 10.115   +58 22 06.55  1.0053 1.8626 138.9 21.9 39.2  80
2019 01 13 07  09 18 06.403   +58 22 48.27  1.0054 1.8626 138.9 21.9 40.4  80
2019 01 13 08  09 18 02.684   +58 23 29.93  1.0054 1.8626 138.9 21.9 41.8  80
2019 01 13 09  09 17 58.958   +58 24 11.53  1.0054 1.8627 139.0 21.9 43.1  80
2019 01 13 10  09 17 55.226   +58 24 53.08  1.0054 1.8627 139.0 21.9 44.4  80
2019 01 13 11  09 17 51.486   +58 25 34.56  1.0055 1.8628 139.0 21.9 45.8  80
2019 01 13 12  09 17 47.740   +58 26 15.99  1.0055 1.8628 139.0 21.9 47.2  80
2019 01 13 13  09 17 43.987   +58 26 57.36  1.0055 1.8629 139.0 21.9 48.6  80
2019 01 13 14  09 17 40.227   +58 27 38.67  1.0056 1.8629 139.0 21.9 50.0  80
2019 01 13 15  09 17 36.461   +58 28 19.93  1.0056 1.8630 139.0 21.9 51.4  80
2019 01 13 16  09 17 32.687   +58 29 01.12  1.0056 1.8630 139.0 21.9 52.9  80
2019 01 13 17  09 17 28.907   +58 29 42.26  1.0056 1.8631 139.0 21.9 54.3  80
2019 01 13 18  09 17 25.120   +58 30 23.33  1.0057 1.8631 139.0 21.9 55.8  80
2019 01 13 19  09 17 21.326   +58 31 04.35  1.0057 1.8631 139.0 21.9 57.3  79
2019 01 13 20  09 17 17.525   +58 31 45.31  1.0057 1.8632 139.0 21.9 58.9  79
2019 01 13 21  09 17 13.718   +58 32 26.21  1.0058 1.8632 139.0 21.9 60.4  79
2019 01 13 22  09 17 09.904   +58 33 07.05  1.0058 1.8633 139.0 21.9 62.0  79
2019 01 13 23  09 17 06.083   +58 33 47.84  1.0058 1.8633 139.0 21.9 63.6  79
2019 01 14 00  09 17 02.256   +58 34 28.56  1.0058 1.8634 139.0 21.9 65.2  79
2019 01 14 01  09 16 58.421   +58 35 09.22  1.0059 1.8634 139.0 21.9 66.8  79
2019 01 14 02  09 16 54.581   +58 35 49.82  1.0059 1.8635 139.0 21.9 68.5  79
2019 01 14 03  09 16 50.733   +58 36 30.37  1.0059 1.8635 139.0 21.9 70.1  79
2019 01 14 04  09 16 46.879   +58 37 10.85  1.0060 1.8636 139.0 21.9 71.8  79
2019 01 14 05  09 16 43.018   +58 37 51.28  1.0060 1.8636 139.0 21.9 73.5  79
2019 01 14 06  09 16 39.150   +58 38 31.64  1.0060 1.8636 139.0 21.9 75.2  79
2019 01 14 07  09 16 35.276   +58 39 11.94  1.0061 1.8637 139.0 21.9 77.0  79
2019 01 14 08  09 16 31.395   +58 39 52.19  1.0061 1.8637 139.0 21.9 78.7  79
2019 01 14 09  09 16 27.508   +58 40 32.37  1.0061 1.8638 139.0 21.9 80.5  79
2019 01 14 10  09 16 23.614   +58 41 12.50  1.0062 1.8638 139.0 21.9 82.3  79
2019 01 14 11  09 16 19.713   +58 41 52.56  1.0062 1.8639 139.0 21.9 84.1  79
2019 01 14 12  09 16 15.806   +58 42 32.56  1.0062 1.8639 139.0 21.9 85.9  78
2019 01 14 13  09 16 11.892   +58 43 12.50  1.0063 1.8640 139.0 21.9 87.8  78
2019 01 14 14  09 16 07.972   +58 43 52.38  1.0063 1.8640 139.0 21.9 89.6  78
2019 01 14 15  09 16 04.045   +58 44 32.20  1.0063 1.8641 139.0 21.9 91.5  78
2019 01 14 16  09 16 00.111   +58 45 11.96  1.0064 1.8641 139.0 21.9 93.4  78
2019 01 14 17  09 15 56.171   +58 45 51.66  1.0064 1.8641 139.0 22.0 95.4  78
2019 01 14 18  09 15 52.225   +58 46 31.30  1.0065 1.8642 139.0 22.0 97.3  78
2019 01 14 19  09 15 48.272   +58 47 10.88  1.0065 1.8642 139.0 22.0 99.3  78
2019 01 14 20  09 15 44.312   +58 47 50.39  1.0065 1.8643 139.0 22.0  101  78
2019 01 14 21  09 15 40.346   +58 48 29.84  1.0066 1.8643 139.0 22.0  103  78
2019 01 14 22  09 15 36.374   +58 49 09.24  1.0066 1.8644 139.0 22.0  105  78
2019 01 14 23  09 15 32.395   +58 49 48.57  1.0066 1.8644 139.0 22.0  107  78
2019 01 15 00  09 15 28.410   +58 50 27.83  1.0067 1.8645 139.0 22.0  109  78
2019 01 15 01  09 15 24.418   +58 51 07.04  1.0067 1.8645 139.0 22.0  111  78
2019 01 15 02  09 15 20.420   +58 51 46.19  1.0068 1.8646 139.0 22.0  114  78
2019 01 15 03  09 15 16.415   +58 52 25.27  1.0068 1.8646 139.0 22.0  116  78
2019 01 15 04  09 15 12.404   +58 53 04.29  1.0068 1.8646 139.0 22.0  118  78